QPF
0.07 0.07 0.07 0.06 0.05 0.04 0.04 0.03 0.02 0.01 0.00 0.00 0.00 0.00 0.00 0.00 0.00 0.00 0.00 0.00 0.00 0.00 0.00 0.00 0.00 0.00 0.00 0.00 0.00 0.00 0.00 0.00 0.00 0.00 0.00 0.00 0.00 0.00 0.00 0.00 0.00 0.00 0.00
0.05 0.05 0.04 0.03 0.03 0.03 0.02 0.01 0.00 0.00 0.00 0.00 0.00 0.00 0.00 0.00 0.00 0.00 0.00 0.00 0.00 0.00 0.00 0.00 0.00 0.00 0.00 0.00 0.00 0.00 0.00 0.00 0.00 0.00 0.00 0.00 0.00 0.00 0.00 0.00 0.00 0.00 0.00
0.04 0.04 0.03 0.03 0.02 0.01 0.01 0.00 0.00 0.00 0.00 0.00 0.00 0.00 0.00 0.00 0.00 0.00 0.00 0.00 0.00 0.00 0.00 0.00 0.00 0.00 0.00 0.00 0.00 0.00 0.00 0.00 0.00 0.00 0.00 0.00 0.00 0.00 0.00 0.00 0.00 0.00 0.00
0.03 0.03 0.02 0.02 0.01 0.01 0.01 0.00 0.00 0.00 0.00 0.00 0.00 0.00 0.00 0.00 0.00 0.00 0.00 0.00 0.00 0.00 0.00 0.00 0.00 0.00 0.00 0.00 0.00 0.00 0.00 0.00 0.00 0.00 0.00 0.00 0.00 0.00 0.00 0.00 0.00 0.00 0.00
0.03 0.03 0.03 0.03 0.02 0.02 0.02 0.01 0.01 0.00 0.00 0.00 0.00 0.00 0.00 0.00 0.00 0.00 0.00 0.00 0.00 0.00 0.00 0.00 0.00 0.00 0.00 0.00 0.00 0.00 0.00 0.00 0.00 0.00 0.00 0.00 0.00 0.00 0.00 0.01 0.01 0.00 0.00
0.08 0.07 0.06 0.05 0.04 0.03 0.02 0.01 0.01 0.00 0.00 0.00 0.00 0.00 0.00 0.00 0.00 0.00 0.00 0.00 0.00 0.00 0.00 0.00 0.00 0.00 0.00 0.00 0.00 0.00 0.00 0.00 0.00 0.00 0.01 0.01 0.00 0.01 0.01 0.01 0.01 0.01 0.01
0.09 0.07 0.05 0.03 0.02 0.01 0.01 0.00 0.00 0.00 0.00 0.00 0.00 0.00 0.00 0.00 0.00 0.00 0.00 0.00 0.00 0.00 0.00 0.00 0.00 0.00 0.00 0.00 0.00 0.00 0.00 0.00 0.00 0.01 0.01 0.01 0.01 0.01 0.02 0.01 0.01 0.01 0.01
0.03 0.02 0.01 0.01 0.00 0.00 0.00 0.00 0.00 0.00 0.00 0.00 0.00 0.00 0.00 0.00 0.00 0.00 0.00 0.00 0.00 0.00 0.00 0.00 0.00 0.00 0.00 0.00 0.00 0.00 0.00 0.00 0.00 0.01 0.01 0.01 0.01 0.01 0.01 0.01 0.01 0.01 0.01
0.01 0.01 0.00 0.00 0.00 0.00 0.00 0.00 0.01 0.01 0.01 0.01 0.00 0.00 0.00 0.00 0.00 0.00 0.00 0.00 0.00 0.00 0.00 0.00 0.00 0.00 0.00 0.00 0.00 0.00 0.00 0.00 0.00 0.00 0.00 0.00 0.00 0.01 0.01 0.01 0.01 0.02 0.02
0.01 0.00 0.00 0.00 0.00 0.00 0.01 0.01 0.01 0.01 0.01 0.01 0.01 0.00 0.00 0.00 0.00 0.00 0.00 0.00 0.00 0.00 0.00 0.00 0.00 0.00 0.00 0.00 0.00 0.00 0.00 0.00 0.00 0.00 0.00 0.00 0.00 0.01 0.01 0.01 0.01 0.02 0.02
0.01 0.01 0.00 0.00 0.00 0.00 0.01 0.01 0.01 0.01 0.01 0.01 0.01 0.00 0.00 0.00 0.00 0.00 0.00 0.00 0.00 0.00 0.00 0.00 0.00 0.00 0.00 0.00 0.00 0.00 0.00 0.00 0.00 0.00 0.01 0.01 0.01 0.01 0.01 0.01 0.01 0.01 0.02
0.01 0.01 0.00 0.00 0.00 0.01 0.01 0.01 0.01 0.01 0.01 0.00 0.01 0.01 0.00 0.00 0.00 0.00 0.00 0.00 0.00 0.00 0.00 0.00 0.00 0.00 0.00 0.00 0.00 0.00 0.00 0.01 0.01 0.01 0.01 0.01 0.01 0.00 0.00 0.00 0.00 0.00 0.01
0.01 0.01 0.00 0.00 0.00 0.01 0.01 0.00 0.00 0.00 0.00 0.00 0.00 0.00 0.00 0.00 0.00 0.00 0.00 0.00 0.00 0.00 0.00 0.00 0.00 0.00 0.01 0.01 0.01 0.01 0.01 0.01 0.01 0.01 0.01 0.01 0.01 0.00 0.00 0.00 0.00 0.00 0.00
0.01 0.01 0.01 0.01 0.01 0.01 0.00 0.00 0.00 0.00 0.00 0.00 0.00 0.00 0.00 0.00 0.00 0.00 0.00 0.00 0.00 0.00 0.00 0.01 0.01 0.01 0.02 0.02 0.01 0.01 0.01 0.01 0.01 0.01 0.01 0.01 0.00 0.00 0.00 0.00 0.00 0.00 0.00
0.01 0.01 0.01 0.01 0.01 0.01 0.01 0.01 0.01 0.00 0.00 0.00 0.00 0.00 0.00 0.00 0.00 0.00 0.00 0.00 0.00 0.00 0.00 0.01 0.01 0.01 0.02 0.02 0.01 0.01 0.01 0.01 0.01 0.01 0.01 0.00 0.00 0.00 0.00 0.00 0.00 0.00 0.00
0.00 0.00 0.00 0.01 0.01 0.01 0.01 0.01 0.00 0.00 0.00 0.00 0.00 0.00 0.00 0.00 0.00 0.00 0.00 0.00 0.00 0.00 0.01 0.01 0.01 0.01 0.02 0.02 0.02 0.01 0.01 0.01 0.01 0.01 0.01 0.00 0.00 0.00 0.00 0.00 0.00 0.00 0.00
0.00 0.00 0.00 0.00 0.01 0.01 0.01 0.01 0.01 0.00 0.00 0.00 0.00 0.00 0.00 0.00 0.00 0.00 0.00 0.00 0.00 0.01 0.01 0.02 0.02 0.02 0.02 0.03 0.02 0.02 0.02 0.01 0.01 0.01 0.00 0.00 0.00 0.00 0.00 0.00 0.00 0.00 0.00
0.00 0.00 0.00 0.00 0.00 0.00 0.01 0.01 0.01 0.01 0.00 0.00 0.00 0.00 0.01 0.01 0.01 0.01 0.01 0.01 0.01 0.02 0.02 0.03 0.02 0.02 0.03 0.03 0.03 0.02 0.02 0.01 0.01 0.01 0.00 0.00 0.00 0.00 0.00 0.00 0.00 0.00 0.00
0.00 0.00 0.00 0.00 0.00 0.01 0.01 0.01 0.01 0.01 0.01 0.00 0.00 0.00 0.01 0.01 0.02 0.01 0.01 0.01 0.01 0.02 0.03 0.03 0.03 0.02 0.02 0.02 0.02 0.02 0.01 0.01 0.01 0.01 0.01 0.01 0.00 0.00 0.00 0.00 0.00 0.00 0.00
0.00 0.00 0.00 0.00 0.00 0.00 0.00 0.00 0.00 0.00 0.00 0.00 0.00 0.00 0.01 0.01 0.01 0.01 0.01 0.01 0.01 0.02 0.02 0.02 0.02 0.02 0.02 0.01 0.01 0.01 0.01 0.00 0.00 0.01 0.01 0.01 0.01 0.01 0.00 0.00 0.00 0.00 0.00
0.00 0.00 0.00 0.00 0.00 0.00 0.00 0.00 0.00 0.00 0.00 0.00 0.00 0.00 0.01 0.01 0.01 0.01 0.01 0.01 0.01 0.01 0.01 0.01 0.01 0.01 0.01 0.01 0.00 0.00 0.00 0.00 0.00 0.00 0.01 0.01 0.01 0.01 0.01 0.01 0.00 0.00 0.00
0.00 0.00 0.00 0.00 0.00 0.00 0.00 0.00 0.00 0.00 0.00 0.00 0.00 0.00 0.01 0.01 0.01 0.01 0.01 0.01 0.01 0.01 0.01 0.01 0.01 0.01 0.01 0.00 0.00 0.00 0.00 0.00 0.00 0.00 0.01 0.02 0.02 0.01 0.01 0.01 0.01 0.01 0.00
0.00 0.00 0.00 0.00 0.00 0.00 0.00 0.00 0.00 0.00 0.00 0.00 0.00 0.01 0.01 0.01 0.00 0.00 0.00 0.00 0.00 0.01 0.00 0.00 0.00 0.00 0.00 0.00 0.00 0.00 0.00 0.00 0.00 0.00 0.01 0.01 0.01 0.01 0.01 0.01 0.01 0.01 0.01
0.00 0.00 0.00 0.00 0.00 0.00 0.00 0.00 0.00 0.00 0.00 0.00 0.00 0.00 0.00 0.00 0.00 0.00 0.00 0.00 0.00 0.00 0.00 0.00 0.00 0.00 0.00 0.00 0.00 0.00 0.00 0.00 0.00 0.00 0.01 0.01 0.01 0.01 0.01 0.01 0.01 0.01 0.01
0.00 0.00 0.00 0.00 0.00 0.00 0.00 0.00 0.00 0.00 0.00 0.00 0.00 0.00 0.00 0.00 0.00 0.00 0.00 0.00 0.00 0.00 0.00 0.00 0.00 0.00 0.00 0.00 0.00 0.00 0.00 0.00 0.00 0.00 0.00 0.00 0.00 0.00 0.00 0.00 0.00 0.00 0.00
0.00 0.00 0.00 0.00 0.00 0.00 0.00 0.00 0.00 0.00 0.00 0.00 0.00 0.00 0.00 0.00 0.00 0.00 0.00 0.00 0.00 0.00 0.00 0.00 0.00 0.00 0.00 0.00 0.00 0.00 0.00 0.00 0.00 0.00 0.00 0.00 0.00 0.00 0.00 0.00 0.00 0.00 0.00
MSLP
1018.95 1019.32 1019.66 1019.96 1020.23 1020.50 1020.77 1021.08 1021.44 1021.84 1022.27 1022.72 1023.16 1023.54 1023.85 1024.07 1024.20 1024.24 1024.23 1024.17 1024.10 1024.04 1023.99 1023.97 1023.97 1023.98 1024.01 1024.02 1024.02 1023.99 1023.92 1023.79 1023.60 1023.34 1023.00 1022.57 1022.07 1021.52 1020.93 1020.33 1019.75 1019.21 1018.73
1019.87 1020.18 1020.45 1020.69 1020.91 1021.14 1021.39 1021.68 1022.03 1022.42 1022.86 1023.30 1023.73 1024.11 1024.41 1024.62 1024.74 1024.76 1024.71 1024.61 1024.47 1024.32 1024.17 1024.04 1023.94 1023.86 1023.80 1023.77 1023.75 1023.72 1023.67 1023.58 1023.44 1023.21 1022.89 1022.46 1021.95 1021.36 1020.72 1020.06 1019.41 1018.81 1018.28
1020.74 1021.02 1021.26 1021.47 1021.66 1021.87 1022.10 1022.38 1022.70 1023.08 1023.49 1023.90 1024.30 1024.64 1024.92 1025.10 1025.18 1025.18 1025.09 1024.93 1024.72 1024.50 1024.26 1024.04 1023.84 1023.67 1023.55 1023.46 1023.41 1023.38 1023.35 1023.29 1023.17 1022.97 1022.67 1022.25 1021.73 1021.12 1020.45 1019.75 1019.07 1018.42 1017.85
1021.56 1021.83 1022.07 1022.27 1022.46 1022.65 1022.87 1023.12 1023.42 1023.76 1024.13 1024.49 1024.83 1025.12 1025.34 1025.47 1025.52 1025.47 1025.34 1025.14 1024.89 1024.60 1024.30 1024.00 1023.73 1023.49 1023.30 1023.17 1023.08 1023.03 1022.99 1022.93 1022.83 1022.64 1022.35 1021.94 1021.42 1020.81 1020.13 1019.42 1018.71 1018.05 1017.46
1022.34 1022.62 1022.85 1023.06 1023.24 1023.42 1023.63 1023.86 1024.12 1024.41 1024.71 1025.01 1025.27 1025.49 1025.64 1025.72 1025.72 1025.63 1025.48 1025.25 1024.97 1024.65 1024.31 1023.97 1023.64 1023.35 1023.11 1022.92 1022.79 1022.70 1022.63 1022.55 1022.43 1022.23 1021.94 1021.54 1021.02 1020.42 1019.74 1019.04 1018.35 1017.70 1017.11
1023.06 1023.34 1023.57 1023.77 1023.95 1024.12 1024.30 1024.50 1024.72 1024.95 1025.18 1025.40 1025.58 1025.72 1025.81 1025.83 1025.79 1025.68 1025.51 1025.27 1024.99 1024.67 1024.32 1023.96 1023.60 1023.27 1022.98 1022.73 1022.54 1022.38 1022.26 1022.12 1021.96 1021.74 1021.43 1021.02 1020.52 1019.94 1019.30 1018.63 1017.97 1017.35 1016.78
1023.70 1023.96 1024.18 1024.37 1024.53 1024.68 1024.83 1025.00 1025.16 1025.33 1025.49 1025.63 1025.74 1025.81 1025.84 1025.82 1025.74 1025.62 1025.46 1025.24 1024.98 1024.67 1024.34 1023.98 1023.60 1023.24 1022.89 1022.58 1022.31 1022.08 1021.86 1021.66 1021.43 1021.17 1020.83 1020.42 1019.94 1019.39 1018.80 1018.18 1017.58 1017.00 1016.46
1024.24 1024.47 1024.66 1024.81 1024.94 1025.07 1025.19 1025.32 1025.44 1025.55 1025.65 1025.73 1025.77 1025.78 1025.76 1025.71 1025.62 1025.51 1025.36 1025.17 1024.94 1024.67 1024.36 1024.00 1023.62 1023.22 1022.83 1022.44 1022.08 1021.75 1021.44 1021.15 1020.85 1020.53 1020.17 1019.77 1019.31 1018.81 1018.27 1017.73 1017.19 1016.67 1016.18
1024.67 1024.84 1024.99 1025.11 1025.21 1025.30 1025.40 1025.49 1025.57 1025.64 1025.69 1025.72 1025.72 1025.70 1025.64 1025.58 1025.49 1025.38 1025.26 1025.10 1024.91 1024.66 1024.37 1024.02 1023.63 1023.19 1022.73 1022.27 1021.82 1021.38 1020.98 1020.60 1020.23 1019.86 1019.49 1019.10 1018.68 1018.24 1017.78 1017.31 1016.84 1016.38 1015.94
1024.98 1025.10 1025.20 1025.28 1025.35 1025.42 1025.49 1025.56 1025.62 1025.66 1025.69 1025.69 1025.66 1025.61 1025.55 1025.47 1025.38 1025.29 1025.18 1025.04 1024.87 1024.65 1024.36 1024.01 1023.58 1023.11 1022.59 1022.04 1021.50 1020.98 1020.49 1020.03 1019.61 1019.22 1018.85 1018.49 1018.12 1017.74 1017.36 1016.97 1016.57 1016.17 1015.76
1025.19 1025.26 1025.32 1025.37 1025.42 1025.47 1025.53 1025.59 1025.65 1025.69 1025.70 1025.69 1025.65 1025.59 1025.51 1025.43 1025.34 1025.24 1025.14 1025.01 1024.84 1024.61 1024.31 1023.93 1023.47 1022.95 1022.37 1021.76 1021.14 1020.55 1020.00 1019.50 1019.05 1018.65 1018.30 1017.98 1017.67 1017.37 1017.06 1016.74 1016.39 1016.03 1015.65
1025.31 1025.35 1025.38 1025.41 1025.45 1025.50 1025.57 1025.64 1025.70 1025.75 1025.77 1025.76 1025.72 1025.65 1025.57 1025.47 1025.37 1025.26 1025.13 1024.98 1024.79 1024.54 1024.20 1023.79 1023.29 1022.71 1022.08 1021.42 1020.76 1020.12 1019.54 1019.02 1018.57 1018.20 1017.88 1017.61 1017.36 1017.12 1016.87 1016.61 1016.31 1015.97 1015.59
1025.35 1025.37 1025.39 1025.42 1025.47 1025.54 1025.62 1025.71 1025.79 1025.86 1025.89 1025.89 1025.85 1025.78 1025.68 1025.57 1025.44 1025.30 1025.14 1024.95 1024.71 1024.41 1024.04 1023.58 1023.03 1022.42 1021.75 1021.06 1020.38 1019.73 1019.15 1018.64 1018.22 1017.87 1017.60 1017.38 1017.18 1016.99 1016.79 1016.55 1016.27 1015.94 1015.55
1025.32 1025.34 1025.37 1025.41 1025.48 1025.57 1025.68 1025.79 1025.90 1025.98 1026.03 1026.04 1026.01 1025.93 1025.82 1025.68 1025.52 1025.34 1025.13 1024.88 1024.59 1024.24 1023.81 1023.31 1022.73 1022.10 1021.42 1020.72 1020.05 1019.42 1018.86 1018.38 1017.99 1017.69 1017.45 1017.26 1017.10 1016.93 1016.74 1016.51 1016.23 1015.89 1015.49
1025.22 1025.25 1025.29 1025.36 1025.45 1025.57 1025.71 1025.86 1025.99 1026.09 1026.16 1026.17 1026.13 1026.05 1025.92 1025.75 1025.55 1025.32 1025.06 1024.77 1024.42 1024.02 1023.56 1023.02 1022.43 1021.79 1021.12 1020.45 1019.80 1019.21 1018.68 1018.24 1017.89 1017.61 1017.40 1017.22 1017.06 1016.89 1016.69 1016.44 1016.14 1015.77 1015.35
1025.06 1025.10 1025.16 1025.26 1025.38 1025.53 1025.69 1025.86 1026.01 1026.13 1026.20 1026.22 1026.18 1026.08 1025.93 1025.74 1025.51 1025.24 1024.94 1024.60 1024.22 1023.78 1023.30 1022.76 1022.17 1021.55 1020.91 1020.28 1019.68 1019.13 1018.64 1018.23 1017.90 1017.63 1017.41 1017.22 1017.02 1016.82 1016.57 1016.28 1015.94 1015.55 1015.12
1024.86 1024.91 1024.99 1025.10 1025.25 1025.42 1025.60 1025.79 1025.95 1026.08 1026.15 1026.17 1026.13 1026.02 1025.86 1025.65 1025.39 1025.10 1024.78 1024.41 1024.01 1023.57 1023.09 1022.56 1022.00 1021.42 1020.83 1020.24 1019.69 1019.18 1018.73 1018.33 1018.00 1017.70 1017.45 1017.20 1016.95 1016.68 1016.38 1016.04 1015.66 1015.25 1014.81
1024.64 1024.70 1024.79 1024.92 1025.09 1025.27 1025.47 1025.66 1025.82 1025.95 1026.03 1026.05 1026.00 1025.89 1025.72 1025.50 1025.24 1024.94 1024.61 1024.25 1023.86 1023.43 1022.97 1022.48 1021.96 1021.43 1020.89 1020.35 1019.84 1019.36 1018.92 1018.52 1018.16 1017.82 1017.50 1017.18 1016.85 1016.50 1016.13 1015.73 1015.32 1014.90 1014.47
1024.44 1024.51 1024.61 1024.75 1024.92 1025.12 1025.31 1025.50 1025.67 1025.80 1025.87 1025.89 1025.84 1025.73 1025.57 1025.36 1025.10 1024.82 1024.50 1024.16 1023.79 1023.39 1022.97 1022.53 1022.06 1021.58 1021.09 1020.60 1020.12 1019.65 1019.20 1018.77 1018.36 1017.95 1017.55 1017.15 1016.73 1016.30 1015.87 1015.43 1014.99 1014.57 1014.18
1024.31 1024.38 1024.49 1024.63 1024.81 1025.00 1025.20 1025.38 1025.54 1025.66 1025.74 1025.75 1025.71 1025.61 1025.46 1025.26 1025.03 1024.77 1024.48 1024.17 1023.83 1023.48 1023.10 1022.70 1022.29 1021.85 1021.40 1020.94 1020.47 1020.00 1019.53 1019.06 1018.59 1018.11 1017.62 1017.13 1016.63 1016.14 1015.65 1015.18 1014.74 1014.34 1013.99
1024.27 1024.34 1024.45 1024.60 1024.77 1024.96 1025.15 1025.33 1025.49 1025.60 1025.67 1025.69 1025.66 1025.57 1025.44 1025.27 1025.06 1024.83 1024.57 1024.30 1024.00 1023.68 1023.34 1022.98 1022.60 1022.20 1021.78 1021.33 1020.86 1020.38 1019.87 1019.35 1018.82 1018.27 1017.71 1017.15 1016.59 1016.05 1015.54 1015.06 1014.64 1014.28 1013.98
1024.32 1024.40 1024.51 1024.66 1024.83 1025.02 1025.20 1025.38 1025.52 1025.64 1025.71 1025.73 1025.71 1025.64 1025.53 1025.38 1025.21 1025.00 1024.77 1024.52 1024.26 1023.97 1023.66 1023.33 1022.97 1022.58 1022.16 1021.72 1021.24 1020.73 1020.19 1019.62 1019.04 1018.43 1017.82 1017.22 1016.63 1016.07 1015.56 1015.10 1014.72 1014.41 1014.17
1024.46 1024.54 1024.66 1024.81 1024.98 1025.16 1025.34 1025.51 1025.65 1025.76 1025.84 1025.87 1025.86 1025.81 1025.72 1025.59 1025.44 1025.26 1025.05 1024.82 1024.58 1024.30 1024.01 1023.68 1023.33 1022.94 1022.52 1022.06 1021.56 1021.03 1020.46 1019.86 1019.24 1018.61 1017.97 1017.35 1016.76 1016.22 1015.73 1015.32 1014.98 1014.73 1014.55
1024.64 1024.73 1024.85 1025.00 1025.17 1025.35 1025.53 1025.69 1025.83 1025.94 1026.02 1026.06 1026.07 1026.03 1025.96 1025.86 1025.72 1025.56 1025.37 1025.16 1024.91 1024.65 1024.35 1024.02 1023.66 1023.26 1022.82 1022.35 1021.83 1021.28 1020.69 1020.07 1019.44 1018.80 1018.17 1017.56 1016.99 1016.48 1016.04 1015.68 1015.40 1015.21 1015.08
1024.82 1024.92 1025.06 1025.21 1025.38 1025.56 1025.73 1025.89 1026.03 1026.15 1026.23 1026.28 1026.30 1026.28 1026.23 1026.14 1026.03 1025.88 1025.70 1025.50 1025.25 1024.98 1024.68 1024.34 1023.96 1023.54 1023.09 1022.60 1022.06 1021.50 1020.90 1020.29 1019.66 1019.03 1018.42 1017.85 1017.32 1016.86 1016.47 1016.17 1015.94 1015.80 1015.72
1024.99 1025.11 1025.25 1025.41 1025.58 1025.75 1025.92 1026.08 1026.22 1026.34 1026.43 1026.49 1026.52 1026.52 1026.49 1026.43 1026.33 1026.20 1026.03 1025.83 1025.59 1025.32 1025.00 1024.65 1024.26 1023.83 1023.36 1022.86 1022.32 1021.75 1021.16 1020.55 1019.94 1019.34 1018.76 1018.22 1017.75 1017.33 1017.00 1016.74 1016.56 1016.45 1016.40
Thickness
5641 5637 5633 5628 5623 5619 5615 5610 5605 5601 5596 5592 5588 5583 5578 5573 5569 5564 5559 5555 5551 5547 5544 5540 5536 5532 5528 5523 5519 5515 5510 5505 5499 5497 5494 5492 5489 5486 5484 5480 5478 5475 5472
5624 5620 5616 5611 5607 5602 5597 5593 5589 5585 5580 5575 5570 5564 5559 5553 5549 5545 5540 5536 5533 5529 5526 5523 5519 5517 5512 5508 5503 5498 5494 5490 5486 5482 5480 5477 5475 5472 5470 5467 5465 5462 5459
5607 5603 5598 5594 5590 5585 5581 5577 5573 5568 5563 5558 5552 5545 5539 5534 5530 5525 5521 5517 5514 5511 5509 5506 5503 5500 5496 5492 5488 5484 5480 5478 5473 5469 5468 5465 5463 5461 5459 5456 5454 5451 5448
5590 5585 5580 5575 5571 5567 5563 5559 5555 5551 5545 5539 5532 5526 5521 5516 5512 5508 5504 5500 5496 5494 5492 5490 5488 5485 5481 5478 5474 5470 5467 5463 5460 5457 5455 5454 5452 5451 5447 5445 5444 5442 5440
5573 5568 5563 5558 5554 5549 5545 5541 5537 5532 5527 5521 5515 5508 5503 5499 5495 5491 5487 5484 5480 5477 5476 5474 5473 5471 5469 5465 5462 5458 5455 5452 5449 5447 5446 5446 5445 5442 5439 5437 5437 5437 5435
5557 5552 5547 5542 5536 5531 5527 5522 5518 5513 5509 5504 5498 5492 5487 5483 5478 5475 5471 5467 5464 5461 5459 5458 5457 5456 5454 5451 5449 5447 5446 5444 5441 5439 5439 5440 5440 5437 5436 5434 5432 5431 5431
5540 5536 5531 5525 5520 5515 5511 5505 5500 5495 5491 5486 5481 5476 5470 5466 5462 5458 5455 5451 5448 5446 5444 5442 5442 5442 5440 5437 5436 5436 5436 5437 5437 5435 5435 5435 5435 5435 5434 5432 5429 5426 5424
5526 5521 5516 5511 5505 5500 5495 5490 5485 5480 5475 5470 5465 5460 5456 5452 5447 5443 5440 5436 5433 5431 5430 5429 5428 5429 5429 5427 5426 5427 5429 5432 5433 5433 5433 5434 5434 5434 5432 5429 5426 5424 5422
5512 5508 5503 5497 5491 5486 5481 5476 5471 5466 5461 5456 5451 5447 5442 5437 5434 5430 5426 5421 5418 5417 5417 5418 5418 5419 5420 5419 5419 5421 5424 5429 5433 5434 5434 5434 5435 5434 5432 5428 5425 5422 5421
5499 5494 5489 5484 5478 5473 5468 5463 5458 5453 5448 5444 5439 5434 5430 5425 5421 5418 5414 5409 5406 5405 5406 5408 5410 5411 5413 5415 5415 5417 5421 5427 5430 5433 5434 5435 5435 5434 5432 5428 5424 5420 5418
5487 5482 5477 5471 5466 5461 5456 5451 5446 5441 5436 5431 5427 5422 5418 5414 5409 5406 5403 5399 5397 5396 5398 5401 5404 5407 5410 5414 5417 5419 5423 5426 5429 5431 5432 5434 5434 5433 5431 5429 5425 5420 5416
5476 5471 5466 5461 5457 5452 5446 5440 5435 5429 5424 5418 5414 5410 5406 5402 5399 5396 5395 5393 5393 5392 5394 5397 5401 5406 5411 5416 5420 5423 5427 5429 5430 5431 5432 5432 5432 5431 5430 5429 5426 5423 5419
5467 5462 5457 5453 5447 5442 5436 5430 5424 5418 5412 5407 5402 5398 5394 5392 5390 5388 5388 5388 5389 5390 5393 5398 5403 5408 5413 5418 5422 5426 5429 5430 5431 5431 5431 5431 5431 5431 5430 5428 5426 5423 5421
5458 5453 5449 5444 5439 5433 5428 5422 5416 5410 5404 5400 5395 5390 5386 5384 5383 5383 5383 5385 5388 5391 5394 5399 5405 5410 5415 5419 5423 5427 5430 5431 5431 5431 5432 5432 5432 5431 5429 5426 5423 5420 5418
5451 5446 5442 5437 5432 5426 5421 5415 5411 5407 5402 5397 5391 5387 5383 5380 5380 5380 5380 5383 5387 5390 5394 5399 5405 5410 5415 5420 5424 5428 5431 5433 5433 5433 5433 5432 5431 5430 5428 5426 5423 5420 5416
5445 5441 5436 5432 5428 5422 5416 5410 5407 5403 5400 5396 5392 5387 5384 5381 5381 5381 5384 5387 5391 5394 5397 5400 5405 5410 5414 5419 5423 5427 5431 5433 5434 5435 5434 5433 5432 5430 5429 5427 5424 5420 5417
5442 5438 5434 5431 5427 5421 5415 5409 5403 5400 5398 5395 5392 5389 5386 5384 5384 5385 5387 5391 5395 5398 5400 5403 5407 5412 5416 5420 5424 5427 5429 5433 5435 5436 5436 5435 5434 5433 5431 5429 5426 5423 5420
5441 5438 5434 5430 5427 5422 5417 5411 5405 5401 5397 5394 5393 5391 5389 5388 5388 5389 5391 5395 5397 5400 5402 5406 5410 5414 5418 5422 5426 5429 5432 5435 5437 5438 5438 5438 5437 5435 5433 5432 5429 5426 5423
5440 5437 5434 5430 5427 5422 5418 5413 5407 5403 5399 5396 5394 5393 5392 5392 5392 5393 5395 5396 5398 5401 5405 5409 5413 5417 5421 5424 5428 5431 5433 5435 5436 5438 5439 5439 5439 5438 5436 5435 5432 5430 5426
5439 5438 5434 5430 5426 5422 5417 5413 5408 5404 5401 5398 5396 5394 5394 5394 5394 5396 5397 5399 5401 5405 5408 5412 5416 5420 5423 5426 5429 5432 5434 5436 5437 5438 5439 5440 5441 5440 5439 5438 5435 5432 5428
5437 5435 5434 5429 5425 5422 5418 5414 5410 5406 5403 5400 5398 5397 5397 5396 5396 5397 5399 5402 5405 5408 5411 5414 5418 5421 5424 5427 5429 5432 5434 5435 5436 5437 5439 5441 5442 5442 5442 5440 5438 5435 5431
5437 5434 5431 5428 5425 5422 5418 5415 5411 5408 5405 5403 5400 5400 5400 5399 5399 5401 5403 5405 5408 5411 5414 5416 5419 5422 5424 5426 5428 5430 5432 5434 5436 5437 5439 5441 5442 5443 5443 5441 5439 5437 5433
5437 5433 5430 5427 5425 5423 5419 5415 5412 5409 5406 5404 5403 5402 5401 5401 5402 5404 5406 5408 5411 5414 5416 5418 5420 5423 5425 5427 5429 5430 5431 5433 5435 5437 5438 5441 5443 5443 5443 5441 5439 5437 5434
5436 5432 5429 5426 5423 5420 5418 5415 5412 5410 5407 5405 5404 5403 5402 5403 5404 5406 5408 5411 5413 5415 5417 5419 5421 5423 5425 5428 5431 5433 5435 5437 5440 5441 5442 5443 5444 5444 5443 5441 5439 5437 5434
5434 5431 5428 5425 5422 5419 5417 5414 5412 5410 5408 5406 5405 5404 5404 5405 5406 5408 5410 5412 5413 5415 5417 5419 5421 5423 5425 5428 5431 5434 5438 5442 5444 5445 5446 5446 5445 5444 5443 5441 5438 5436 5433
5434 5430 5427 5424 5422 5419 5417 5414 5412 5411 5409 5407 5406 5405 5405 5406 5407 5409 5411 5412 5414 5415 5417 5419 5421 5423 5426 5429 5432 5436 5440 5443 5445 5446 5446 5446 5444 5443 5442 5439 5438 5435 5432